Weather History for KTLH - December, 2011

Change the Weather History Date:

Sunday, December 18, 2011

  Actual Average Record
Temperature  
Mean Temperature 50 °F 53 °F  
Max Temperature 66 °F 65 °F 82 °F (1967)
Min Temperature 34 °F 41 °F 18 °F (1988)
Degree Days  
Heating Degree Days 15    
Month to date heating degree days 173  
Since 1 July heating degree days 406  
Cooling Degree Days 0    
Month to date cooling degree days 0  
Year to date cooling degree days 2927  
Moisture  
Dew Point 31 °F    
Average Humidity 53    
Maximum Humidity 82    
Minimum Humidity 24    
Precipitation  
Precipitation 0.00 in 0.12 in 1.27 in (1961)
Month to date precipitation 3.68 2.29  
Year to date precipitation 34.09 57.62  
Sea Level Pressure  
Sea Level Pressure 30.31 in    
Wind  
Wind Speed 4 mph (NNW)    
Max Wind Speed 12 mph    
Max Gust Speed 16 mph    
Visibility 10 miles    
Events      
T = Trace of Precipitation, MM = Missing Value Source: NWS Daily Summary

Daily Weather History Graph

Daily Weather History Graph

Search for Another Location

Airport or City:

Trip Planner

Search our weather history database for the weather conditions in past years. The results will help you decide how hot, cold, wet, or windy it might be!

Date:

Astronomy

Dec. 18, 2011 Rise Set
Actual Time 7:28 AM EST 5:39 PM EST
Civil Twilight 7:01 AM EST 6:06 PM EST
Nautical Twilight 6:31 AM EST 6:36 PM EST
Astronomical Twilight 6:02 AM EST 7:05 PM EST
Moon 12:49 AM EST (12/18) 12:46 PM EST (12/18)
Length of Visible Light 11h 04m
Length of Day
10h 11m
Last Quarter, 42% of the Moon is Illuminated
Dec 18
Last Quarter
Dec 24
New
Jan 1
First Quarter
Jan 9
Full
Jan 16
Last Quarter

Hourly Weather History & Observations

Time (EST) Temp. Windchill Dew Point Humidity Pressure Visibility Wind Dir Wind Speed Gust Speed Precip Events Conditions
12:53 AM 46.9 °F - 34.0 °F 61% 30.30 in 10.0 mi NNW 5.8 mph - N/A   Clear
1:53 AM 46.0 °F 43.9 °F 34.0 °F 63% 30.29 in 10.0 mi NNW 4.6 mph - N/A   Clear
2:53 AM 41.0 °F 39.0 °F 33.1 °F 73% 30.28 in 10.0 mi NW 3.5 mph - N/A   Clear
3:53 AM 42.1 °F 38.4 °F 32.0 °F 67% 30.30 in 10.0 mi NNW 5.8 mph - N/A   Clear
4:53 AM 41.0 °F 37.1 °F 30.9 °F 67% 30.30 in 10.0 mi NNW 5.8 mph - N/A   Clear
5:53 AM 39.9 °F 36.7 °F 30.0 °F 68% 30.31 in 10.0 mi NNW 4.6 mph - N/A   Clear
6:53 AM 37.9 °F 35.5 °F 30.0 °F 73% 30.34 in 10.0 mi NW 3.5 mph - N/A   Clear
7:53 AM 35.1 °F 32.2 °F 30.0 °F 82% 30.35 in 10.0 mi NW 3.5 mph - N/A   Clear
8:53 AM 45.0 °F 43.5 °F 30.0 °F 56% 30.36 in 10.0 mi North 3.5 mph - N/A   Clear
9:53 AM 50.0 °F - 28.0 °F 43% 30.37 in 10.0 mi NNE 8.1 mph - N/A   Clear
10:53 AM 54.0 °F - 30.0 °F 40% 30.37 in 10.0 mi North 5.8 mph - N/A   Clear
11:53 AM 57.9 °F - 28.9 °F 33% 30.35 in 10.0 mi North 6.9 mph - N/A   Clear
12:53 PM 62.6 °F - 26.6 °F 26% 30.31 in 10.0 mi Variable 6.9 mph - N/A   Clear
1:53 PM 62.6 °F - 26.6 °F 26% 30.28 in 10.0 mi Variable 4.6 mph - N/A   Clear
2:53 PM 64.0 °F - 27.0 °F 25% 30.26 in 10.0 mi NNW 8.1 mph - N/A   Clear
3:53 PM 64.9 °F - 28.0 °F 25% 30.25 in 10.0 mi NNW 6.9 mph - N/A   Clear
4:53 PM 64.0 °F - 28.9 °F 27% 30.26 in 10.0 mi North 4.6 mph - N/A   Clear
5:53 PM 57.9 °F - 30.9 °F 36% 30.27 in 10.0 mi Calm Calm - N/A   Clear
6:53 PM 46.9 °F - 34.0 °F 61% 30.31 in 10.0 mi Calm Calm - N/A   Clear
7:53 PM 42.1 °F - 33.1 °F 70% 30.33 in 10.0 mi Calm Calm - N/A   Clear
8:53 PM 41.0 °F - 33.1 °F 73% 30.34 in 10.0 mi Calm Calm - N/A   Clear
9:53 PM 37.9 °F - 32.0 °F 79% 30.34 in 10.0 mi Calm Calm - N/A   Clear
10:53 PM 37.0 °F - 32.0 °F 82% 30.33 in 10.0 mi Calm Calm - N/A   Clear
11:53 PM 34.0 °F - 30.9 °F 89% 30.33 in 10.0 mi Calm Calm - N/A   Clear